Time,TemperatureF,DewpointF,PressureIn,WindDirection,WindDirectionDegrees,WindSpeedMPH,WindSpeedGustMPH,Humidity,HourlyPrecipIn,Conditions,Clouds,dailyrainin,SolarRadiationWatts/m^2,SoftwareType,DateUTC
2013-08-12 00:01:00,64.0,39.0,30.03,NE,44,2.0,-999.0,40,-99.99,,,-99.99,0.000000,,2013-08-12 06:01:00,
2013-08-12 00:11:00,64.0,39.0,30.03,NE,44,2.0,-999.0,40,-99.99,,,-99.99,0.000000,,2013-08-12 06:11:00,
2013-08-12 00:22:00,65.0,39.0,30.03,ENE,71,0.0,-999.0,39,-99.99,,,-99.99,0.000000,,2013-08-12 06:22:00,
2013-08-12 00:32:00,66.0,39.0,30.03,ENE,69,1.0,-999.0,37,-99.99,,,-99.99,0.000000,,2013-08-12 06:32:00,
2013-08-12 00:42:00,66.0,39.0,30.03,ENE,69,1.0,-999.0,37,-99.99,,,-99.99,0.000000,,2013-08-12 06:42:00,
2013-08-12 00:52:00,64.0,41.0,30.04,North,5,0.0,-999.0,43,-99.99,,,-99.99,0.000000,,2013-08-12 06:52:00,
2013-08-12 01:01:00,63.0,41.0,30.03,North,11,0.0,-999.0,44,-99.99,,,-99.99,0.000000,,2013-08-12 07:01:00,
2013-08-12 01:12:00,63.0,41.0,30.03,North,11,0.0,-999.0,44,-99.99,,,-99.99,0.000000,,2013-08-12 07:12:00,
2013-08-12 01:22:00,62.0,42.0,30.03,NNE,14,0.0,-999.0,47,-99.99,,,-99.99,0.000000,,2013-08-12 07:22:00,
2013-08-12 01:33:00,62.0,43.0,30.03,North,11,3.0,-999.0,50,-99.99,,,-99.99,0.000000,,2013-08-12 07:33:00,
2013-08-12 01:43:00,62.0,43.0,30.03,North,11,3.0,-999.0,50,-99.99,,,-99.99,0.000000,,2013-08-12 07:43:00,
2013-08-12 01:52:00,61.0,42.0,30.03,NNE,22,3.0,-999.0,50,-99.99,,,-99.99,0.000000,,2013-08-12 07:52:00,
2013-08-12 02:02:00,61.0,43.0,30.03,NE,37,3.0,-999.0,51,-99.99,,,-99.99,0.000000,,2013-08-12 08:02:00,
2013-08-12 02:11:00,61.0,43.0,30.03,NE,37,3.0,-999.0,51,-99.99,,,-99.99,0.000000,,2013-08-12 08:11:00,
2013-08-12 02:22:00,61.0,43.0,30.04,NNE,31,4.0,-999.0,52,-99.99,,,-99.99,0.000000,,2013-08-12 08:22:00,
2013-08-12 02:33:00,60.0,42.0,30.03,NNE,22,5.0,-999.0,51,-99.99,,,-99.99,0.000000,,2013-08-12 08:33:00,
2013-08-12 02:43:00,60.0,42.0,30.03,NNE,22,5.0,-999.0,51,-99.99,,,-99.99,0.000000,,2013-08-12 08:43:00,
2013-08-12 02:53:00,59.0,41.0,30.03,NNE,26,0.0,-999.0,52,-99.99,,,-99.99,0.000000,,2013-08-12 08:53:00,
2013-08-12 03:02:00,59.0,42.0,30.03,North,11,2.0,-999.0,54,-99.99,,,-99.99,0.000000,,2013-08-12 09:02:00,
2013-08-12 03:11:00,59.0,42.0,30.03,North,11,2.0,-999.0,54,-99.99,,,-99.99,0.000000,,2013-08-12 09:11:00,
2013-08-12 03:22:00,58.0,41.0,30.03,North,355,0.0,-999.0,54,-99.99,,,-99.99,0.000000,,2013-08-12 09:22:00,
2013-08-12 03:32:00,58.0,41.0,30.03,WNW,302,0.0,-999.0,54,-99.99,,,-99.99,0.000000,,2013-08-12 09:32:00,
2013-08-12 03:43:00,58.0,41.0,30.03,WNW,302,0.0,-999.0,54,-99.99,,,-99.99,0.000000,,2013-08-12 09:43:00,
2013-08-12 03:53:00,59.0,43.0,30.03,NW,324,2.0,-999.0,55,-99.99,,,-99.99,0.000000,,2013-08-12 09:53:00,
2013-08-12 04:01:00,57.0,42.0,30.03,North,350,2.0,-999.0,58,-99.99,,,-99.99,0.000000,,2013-08-12 10:01:00,
2013-08-12 04:12:00,57.0,42.0,30.03,North,350,2.0,-999.0,58,-99.99,,,-99.99,0.000000,,2013-08-12 10:12:00,
2013-08-12 04:22:00,57.0,43.0,30.03,North,360,2.0,-999.0,59,-99.99,,,-99.99,0.000000,,2013-08-12 10:22:00,
2013-08-12 04:32:00,57.0,43.0,30.02,NNW,340,2.0,-999.0,60,-99.99,,,-99.99,0.000000,,2013-08-12 10:32:00,
2013-08-12 04:43:00,57.0,43.0,30.02,NNW,340,2.0,-999.0,60,-99.99,,,-99.99,0.000000,,2013-08-12 10:43:00,
2013-08-12 04:52:00,57.0,44.0,30.02,North,5,3.0,-999.0,61,-99.99,,,-99.99,0.000000,,2013-08-12 10:52:00,
2013-08-12 05:02:00,56.0,42.0,30.02,North,10,0.0,-999.0,59,-99.99,,,-99.99,0.000000,,2013-08-12 11:02:00,
2013-08-12 05:12:00,56.0,42.0,30.02,North,10,0.0,-999.0,59,-99.99,,,-99.99,0.000000,,2013-08-12 11:12:00,
2013-08-12 05:22:00,55.0,41.0,30.02,North,5,0.0,-999.0,60,-99.99,,,-99.99,0.000000,,2013-08-12 11:22:00,
2013-08-12 05:32:00,56.0,42.0,30.02,North,355,0.0,-999.0,59,-99.99,,,-99.99,0.000000,,2013-08-12 11:32:00,
2013-08-12 05:42:00,56.0,42.0,30.02,North,355,0.0,-999.0,59,-99.99,,,-99.99,0.000000,,2013-08-12 11:42:00,
2013-08-12 05:53:00,56.0,42.0,30.02,NNW,336,0.0,-999.0,60,-99.99,,,-99.99,0.000000,,2013-08-12 11:53:00,
2013-08-12 06:02:00,57.0,42.0,30.03,NNW,336,0.0,-999.0,58,-99.99,,,-99.99,0.000000,,2013-08-12 12:02:00,
2013-08-12 06:11:00,57.0,42.0,30.03,NNW,336,0.0,-999.0,58,-99.99,,,-99.99,0.000000,,2013-08-12 12:11:00,
2013-08-12 06:22:00,56.0,42.0,30.03,WNW,294,0.0,-999.0,59,-99.99,,,-99.99,0.000000,,2013-08-12 12:22:00,
2013-08-12 06:32:00,56.0,40.0,30.04,SW,228,0.0,-999.0,55,-99.99,,,-99.99,5.000000,,2013-08-12 12:32:00,
2013-08-12 06:43:00,56.0,40.0,30.04,SW,228,0.0,-999.0,55,-99.99,,,-99.99,5.000000,,2013-08-12 12:43:00,
2013-08-12 06:52:00,56.0,40.0,30.04,SW,233,0.0,-999.0,55,-99.99,,,-99.99,16.000000,,2013-08-12 12:52:00,
2013-08-12 07:01:00,55.0,40.0,30.04,West,279,1.0,-999.0,56,-99.99,,,-99.99,35.000000,,2013-08-12 13:01:00,
2013-08-12 07:11:00,55.0,40.0,30.04,West,279,1.0,-999.0,56,-99.99,,,-99.99,35.000000,,2013-08-12 13:11:00,
2013-08-12 07:22:00,56.0,40.0,30.05,West,281,0.0,-999.0,55,-99.99,,,-99.99,47.000000,,2013-08-12 13:22:00,
2013-08-12 07:32:00,56.0,41.0,30.05,WNW,285,0.0,-999.0,56,-99.99,,,-99.99,58.000000,,2013-08-12 13:32:00,
2013-08-12 07:43:00,56.0,41.0,30.05,WNW,285,0.0,-999.0,56,-99.99,,,-99.99,58.000000,,2013-08-12 13:43:00,
2013-08-12 07:53:00,57.0,41.0,30.06,WNW,288,0.0,-999.0,56,-99.99,,,-99.99,88.000000,,2013-08-12 13:53:00,
2013-08-12 08:02:00,58.0,41.0,30.06,WNW,290,0.0,-999.0,53,-99.99,,,-99.99,190.000000,,2013-08-12 14:02:00,
2013-08-12 08:11:00,58.0,41.0,30.06,WNW,290,0.0,-999.0,53,-99.99,,,-99.99,190.000000,,2013-08-12 14:11:00,
2013-08-12 08:22:00,60.0,42.0,30.06,WNW,295,0.0,-999.0,52,-99.99,,,-99.99,90.000000,,2013-08-12 14:22:00,
2013-08-12 08:32:00,60.0,42.0,30.06,NNE,19,0.0,-999.0,52,-99.99,,,-99.99,325.000000,,2013-08-12 14:32:00,
2013-08-12 08:42:00,60.0,42.0,30.06,NNE,19,0.0,-999.0,52,-99.99,,,-99.99,325.000000,,2013-08-12 14:42:00,
2013-08-12 08:53:00,62.0,42.0,30.06,NW,323,0.0,-999.0,47,-99.99,,,-99.99,204.000000,,2013-08-12 14:53:00,
2013-08-12 09:02:00,64.0,43.0,30.06,NW,315,0.0,-999.0,46,-99.99,,,-99.99,454.000000,,2013-08-12 15:02:00,
2013-08-12 09:11:00,64.0,43.0,30.06,NW,315,0.0,-999.0,46,-99.99,,,-99.99,454.000000,,2013-08-12 15:11:00,
2013-08-12 09:22:00,66.0,43.0,30.06,WNW,298,0.0,-999.0,43,-99.99,,,-99.99,155.000000,,2013-08-12 15:22:00,
2013-08-12 09:33:00,67.0,43.0,30.06,NW,316,0.0,-999.0,42,-99.99,,,-99.99,529.000000,,2013-08-12 15:33:00,
2013-08-12 09:43:00,67.0,43.0,30.06,NW,316,0.0,-999.0,42,-99.99,,,-99.99,529.000000,,2013-08-12 15:43:00,
2013-08-12 09:52:00,69.0,46.0,30.06,NW,313,0.0,-999.0,44,-99.99,,,-99.99,636.000000,,2013-08-12 15:52:00,
2013-08-12 10:01:00,71.0,45.0,30.06,NW,313,0.0,-999.0,40,-99.99,,,-99.99,269.000000,,2013-08-12 16:01:00,
2013-08-12 10:11:00,71.0,45.0,30.06,NW,313,0.0,-999.0,40,-99.99,,,-99.99,269.000000,,2013-08-12 16:11:00,
2013-08-12 10:22:00,71.0,46.0,30.05,NNW,346,0.0,-999.0,41,-99.99,,,-99.99,645.000000,,2013-08-12 16:22:00,
2013-08-12 10:32:00,71.0,46.0,30.05,North,360,0.0,-999.0,41,-99.99,,,-99.99,714.000000,,2013-08-12 16:32:00,
2013-08-12 10:42:00,71.0,46.0,30.05,North,360,0.0,-999.0,41,-99.99,,,-99.99,714.000000,,2013-08-12 16:42:00,
2013-08-12 10:53:00,72.0,44.0,30.04,North,360,0.0,-999.0,37,-99.99,,,-99.99,638.000000,,2013-08-12 16:53:00,
2013-08-12 11:02:00,74.0,47.0,30.04,ENE,63,0.0,-999.0,38,-99.99,,,-99.99,754.000000,,2013-08-12 17:02:00,
2013-08-12 11:11:00,74.0,47.0,30.04,ENE,63,0.0,-999.0,38,-99.99,,,-99.99,754.000000,,2013-08-12 17:11:00,
2013-08-12 11:22:00,75.0,44.0,30.04,NE,35,0.0,-999.0,33,-99.99,,,-99.99,545.000000,,2013-08-12 17:22:00,
2013-08-12 11:32:00,76.0,44.0,30.03,SW,226,0.0,-999.0,32,-99.99,,,-99.99,798.000000,,2013-08-12 17:32:00,
2013-08-12 11:43:00,76.0,44.0,30.03,SW,226,0.0,-999.0,32,-99.99,,,-99.99,798.000000,,2013-08-12 17:43:00,
2013-08-12 11:52:00,76.0,45.0,30.03,SW,221,0.0,-999.0,33,-99.99,,,-99.99,856.000000,,2013-08-12 17:52:00,
2013-08-12 12:01:00,77.0,42.0,30.03,WSW,253,2.0,-999.0,29,-99.99,,,-99.99,951.000000,,2013-08-12 18:01:00,
2013-08-12 12:11:00,77.0,42.0,30.03,WSW,253,2.0,-999.0,29,-99.99,,,-99.99,951.000000,,2013-08-12 18:11:00,
2013-08-12 12:24:00,77.0,40.0,30.03,South,169,3.0,-999.0,27,-99.99,,,-99.99,550.000000,,2013-08-12 18:24:00,
2013-08-12 12:32:00,77.0,42.0,30.03,SSE,157,1.0,-999.0,29,-99.99,,,-99.99,696.000000,,2013-08-12 18:32:00,
2013-08-12 12:43:00,77.0,42.0,30.03,SSE,157,1.0,-999.0,29,-99.99,,,-99.99,696.000000,,2013-08-12 18:43:00,
2013-08-12 12:52:00,76.0,41.0,30.02,SSE,167,1.0,-999.0,29,-99.99,,,-99.99,397.000000,,2013-08-12 18:52:00,
2013-08-12 13:01:00,77.0,41.0,30.02,SSE,166,1.0,-999.0,28,-99.99,,,-99.99,485.000000,,2013-08-12 19:01:00,
2013-08-12 13:11:00,77.0,41.0,30.02,SSE,166,1.0,-999.0,28,-99.99,,,-99.99,485.000000,,2013-08-12 19:11:00,
2013-08-12 13:21:00,77.0,41.0,30.02,SSE,149,1.0,-999.0,28,-99.99,,,-99.99,733.000000,,2013-08-12 19:21:00,
2013-08-12 13:32:00,78.0,40.0,30.01,SSE,168,1.0,-999.0,26,-99.99,,,-99.99,374.000000,,2013-08-12 19:32:00,
2013-08-12 13:43:00,78.0,40.0,30.01,SSE,168,1.0,-999.0,26,-99.99,,,-99.99,374.000000,,2013-08-12 19:43:00,
2013-08-12 13:52:00,78.0,39.0,30.01,South,175,0.0,-999.0,25,-99.99,,,-99.99,454.000000,,2013-08-12 19:52:00,
2013-08-12 14:02:00,78.0,40.0,30.01,South,190,0.0,-999.0,26,-99.99,,,-99.99,316.000000,,2013-08-12 20:02:00,
2013-08-12 14:11:00,78.0,40.0,30.01,South,190,0.0,-999.0,26,-99.99,,,-99.99,316.000000,,2013-08-12 20:11:00,
2013-08-12 14:22:00,78.0,40.0,30.01,SW,220,1.0,-999.0,26,-99.99,,,-99.99,287.000000,,2013-08-12 20:22:00,
2013-08-12 14:32:00,78.0,41.0,30.01,SSW,210,3.0,-999.0,27,-99.99,,,-99.99,357.000000,,2013-08-12 20:32:00,
2013-08-12 14:42:00,78.0,41.0,30.01,SSW,210,3.0,-999.0,27,-99.99,,,-99.99,357.000000,,2013-08-12 20:42:00,
2013-08-12 14:52:00,78.0,36.0,30.01,SSW,198,5.0,-999.0,22,-99.99,,,-99.99,373.000000,,2013-08-12 20:52:00,
2013-08-12 15:01:00,79.0,37.0,30.01,South,190,3.0,-999.0,22,-99.99,,,-99.99,529.000000,,2013-08-12 21:01:00,
2013-08-12 15:12:00,79.0,37.0,30.01,South,190,3.0,-999.0,22,-99.99,,,-99.99,529.000000,,2013-08-12 21:12:00,
2013-08-12 15:22:00,79.0,37.0,30.01,South,182,7.0,-999.0,22,-99.99,,,-99.99,396.000000,,2013-08-12 21:22:00,
2013-08-12 15:32:00,79.0,36.0,30.00,SSE,165,5.0,-999.0,21,-99.99,,,-99.99,401.000000,,2013-08-12 21:32:00,
2013-08-12 15:43:00,79.0,36.0,30.00,SSE,165,5.0,-999.0,21,-99.99,,,-99.99,401.000000,,2013-08-12 21:43:00,
2013-08-12 15:52:00,79.0,34.0,30.00,South,177,4.0,-999.0,20,-99.99,,,-99.99,490.000000,,2013-08-12 21:52:00,
2013-08-12 16:02:00,80.0,35.0,30.00,SSE,155,2.0,-999.0,20,-99.99,,,-99.99,457.000000,,2013-08-12 22:02:00,
2013-08-12 16:11:00,80.0,35.0,30.00,SSE,155,2.0,-999.0,20,-99.99,,,-99.99,457.000000,,2013-08-12 22:11:00,
2013-08-12 16:21:00,80.0,35.0,30.00,SW,223,2.0,-999.0,20,-99.99,,,-99.99,353.000000,,2013-08-12 22:21:00,
2013-08-12 16:32:00,80.0,34.0,30.00,SW,217,3.0,-999.0,19,-99.99,,,-99.99,367.000000,,2013-08-12 22:32:00,
2013-08-12 16:43:00,80.0,34.0,30.00,SW,217,3.0,-999.0,19,-99.99,,,-99.99,367.000000,,2013-08-12 22:43:00,
2013-08-12 16:53:00,80.0,34.0,30.00,South,171,0.0,-999.0,19,-99.99,,,-99.99,318.000000,,2013-08-12 22:53:00,
2013-08-12 17:02:00,80.0,34.0,30.00,SW,219,0.0,-999.0,19,-99.99,,,-99.99,397.000000,,2013-08-12 23:02:00,
2013-08-12 17:11:00,80.0,34.0,30.00,SW,219,0.0,-999.0,19,-99.99,,,-99.99,397.000000,,2013-08-12 23:11:00,
2013-08-12 17:22:00,82.0,33.0,30.00,NNW,329,1.0,-999.0,17,-99.99,,,-99.99,373.000000,,2013-08-12 23:22:00,
2013-08-12 17:53:00,80.0,37.0,30.00,NE,34,10.0,-999.0,21,-99.99,,,-99.99,,,2013-08-12 23:53:00,
2013-08-12 18:12:00,79.0,34.0,30.00,NE,50,12.0,-999.0,20,-99.99,,,-99.99,,,2013-08-13 00:12:00,
2013-08-12 18:23:00,78.0,35.0,30.00,NE,44,14.0,-999.0,21,-99.99,,,-99.99,,,2013-08-13 00:23:00,
2013-08-12 18:45:00,77.0,35.0,30.01,NNE,20,12.0,-999.0,22,-99.99,,,-99.99,,,2013-08-13 00:45:00,
2013-08-12 18:53:00,77.0,34.0,30.02,North,360,9.0,-999.0,21,-99.99,,,-99.99,,,2013-08-13 00:53:00,
2013-08-12 19:13:00,76.0,36.0,30.02,NNE,33,7.0,-999.0,23,-99.99,,,-99.99,,,2013-08-13 01:13:00,
2013-08-12 19:23:00,76.0,36.0,30.02,NE,56,6.0,-999.0,23,-99.99,,,-99.99,,,2013-08-13 01:23:00,
2013-08-12 19:41:00,75.0,36.0,30.02,ENE,60,8.0,-999.0,24,-99.99,,,-99.99,,,2013-08-13 01:41:00,
2013-08-12 19:55:00,75.0,37.0,30.03,ENE,65,8.0,-999.0,25,-99.99,,,-99.99,,,2013-08-13 01:55:00,
2013-08-12 20:11:00,74.0,38.0,30.03,East,86,9.0,-999.0,27,-99.99,,,-99.99,,,2013-08-13 02:11:00,
2013-08-12 20:21:00,73.0,39.0,30.03,ENE,71,7.0,-999.0,29,-99.99,,,-99.99,,,2013-08-13 02:21:00,
2013-08-12 20:42:00,72.0,40.0,30.05,NE,54,7.0,-999.0,31,-99.99,,,-99.99,,,2013-08-13 02:42:00,
2013-08-12 20:52:00,71.0,40.0,30.05,WNW,286,0.0,-999.0,32,-99.99,,,-99.99,,,2013-08-13 02:52:00,
2013-08-12 21:22:00,71.0,40.0,30.06,SW,234,0.0,-999.0,32,-99.99,,,-99.99,,,2013-08-13 03:22:00,
2013-08-12 21:54:00,70.0,40.0,30.05,SW,235,0.0,-999.0,33,-99.99,,,-99.99,,,2013-08-13 03:54:00,
2013-08-12 22:12:00,70.0,40.0,30.05,SW,225,0.0,-999.0,33,-99.99,,,-99.99,,,2013-08-13 04:12:00,
2013-08-12 22:23:00,70.0,40.0,30.05,SW,225,0.0,-999.0,33,-99.99,,,-99.99,,,2013-08-13 04:23:00,
2013-08-12 22:42:00,69.0,39.0,30.05,SSW,209,0.0,-999.0,34,-99.99,,,-99.99,,,2013-08-13 04:42:00,
2013-08-12 22:53:00,69.0,40.0,30.04,SSW,209,0.0,-999.0,35,-99.99,,,-99.99,,,2013-08-13 04:53:00,
2013-08-12 23:12:00,67.0,38.0,30.04,NNE,28,0.0,-999.0,35,-99.99,,,-99.99,,,2013-08-13 05:12:00,
2013-08-12 23:21:00,64.0,39.0,30.04,NE,49,1.0,-999.0,40,-99.99,,,-99.99,,,2013-08-13 05:21:00,
2013-08-12 23:52:00,66.0,40.0,30.05,East,96,0.0,-999.0,38,-99.99,,,-99.99,,,2013-08-13 05:52:00,